User: anonymous   Login
Location: Albany
(35.0000°S, 118.0000°E)
Time: 15:17:39
(UTC-05:00)
Language:

Cosmos 1758 Rocket - Orbit

View from above orbital plane
View from above orbital plane
View from above satellite
View from above satellite

Ground track
Ground track

The orbit data is extracted from the following two-line orbital elements,

1 16792U 86046B   15063.09561350  .00000560  00000-0  65969-4 0  9993
2 16792 082.4801 268.9800 0024774 162.3914 303.7504 14.82830324550965
Epoch (UTC): 04 March 2015 02:17:41
Eccentricity: 0.0024774
inclination: 82.4801°
perigee height: 603 km
apogee height: 638 km
right ascension of ascending node: 268.9800°
argument of perigee: 162.3914°
revolutions per day: 14.82830324
mean anomaly at epoch: 303.7504°
orbit number at epoch: 55096

The dashed part of the orbit path shows where the satellite is in the earth's shadow,  

DLR